Content
SEND FEEDBACK

Daily
Averages
Monthly
Summary
United States of America

MAURICEVILLE, TEXAS


Home > North America > United States > Texas
Elevation: 20 feet     Latitude: 30 14N     Longitude: 093 44W

WEATHER
 
SELECT A DAY
Number of Records: 110,506;   Date Range: 8/25/05 - 9/15/14
 
SHARE

PRINT THIS DATA

[ ← Previous Day ]
WEATHER ALMANAC - JULY 29, 2013
[ Next Day → ]
[ °C ]   °F
Weather ElementAverageHighLow
Temperature82.2 °F90.5 °F (1:15 pm)73 °F (4:55 am)
Dewpoint73.7 °F79.7 °F (8:55 am)69.8 °F (1:55 pm)
Humidity77.5 %97 % (12:35 am)50 % (1:55 pm)
Barometer30.07 in30.12 in (11:55 pm)30.01 in (12:55 am)
Wind Speed4.9 mph11.5 mph (2:15 pm)
Wind Gust16.1 mph (2:15 pm)
Weather ElementAverage
Visibility7.3 mi
Wind DirectionESE (105.4 °)

Weather ElementTotal
Precipitation---
Cooling Degree Days16.8 (Base 65)
Growing Degree Days31.8 (Base 50)
Averaged from 70 records on July 29, 2013
WEATHER CONDITIONS BREAKOUT
WIND DIRECTION BREAKOUT
WEATHER BY HOUR - JULY 29, 2013
[ °C ]   °F
Local TimeTemperatureDewpointHumidityBarometerVisibilityWind DirectionWind SpeedGust SpeedPrecipitationEventsConditions
12:35 AM75.9 °F75.0 °F97 %30.02 in1.8 miCalmScattered Clouds
12:55 AM75.6 °F74.7 °F97 %30.01 in5.0 miCalmScattered Clouds
1:15 AM76.1 °F75.2 °F97 %30.01 in5.0 miCalmClear
1:35 AM76.1 °F75.2 °F97 %30.01 in4.0 miCalmClear
1:55 AM75.6 °F74.7 °F97 %30.01 in1.2 miCalmScattered Clouds
2:15 AM75.2 °F74.1 °F96 %30.02 in2.5 miCalmMist
2:55 AM75.4 °F74.5 °F97 %30.01 in1.2 miCalmScattered Clouds
3:15 AM75.2 °F74.3 °F97 %30.01 in1.8 miCalmScattered Clouds
3:35 AM74.3 °F73.4 °F97 %30.01 in1.0 miCalmMist
3:55 AM74.3 °F73.4 °F97 %30.01 in0.8 miCalmMist
4:15 AM74.3 °F73.4 °F97 %30.02 in0.5 miCalmFogFog
4:35 AM73.6 °F72.7 °F97 %30.02 in0.5 miCalmFogFog
4:55 AM73.0 °F72.1 °F97 %30.03 in1.2 miCalmScattered Clouds
5:15 AM74.1 °F73.2 °F97 %30.03 in1.2 miCalmScattered Clouds
5:35 AM73.6 °F72.7 °F97 %30.03 in1.0 miCalmMist
5:55 AM74.1 °F73.2 °F97 %30.03 in0.8 miCalmMist
6:15 AM73.6 °F72.7 °F97 %30.04 in1.2 miCalmScattered Clouds
6:35 AM73.6 °F72.7 °F97 %30.05 in1.0 miCalmMostly Cloudy
6:55 AM73.6 °F72.7 °F97 %30.05 in1.5 miCalmScattered Clouds
7:15 AM73.6 °F72.7 °F97 %30.06 in1.8 miCalmMist
7:35 AM74.8 °F73.9 °F97 %30.07 in3.0 miCalmMist
7:55 AM76.6 °F75.7 °F97 %30.07 in5.0 miCalmClear
8:15 AM77.9 °F77.0 °F97 %30.08 in7.0 miCalmClear
8:35 AM79.7 °F78.8 °F97 %30.08 in7.0 miCalmClear
8:55 AM81.5 °F79.7 °F94 %30.08 in10.0 miCalmClear
9:15 AM82.9 °F78.4 °F86 %30.08 in10.0 miSSW (210°)4.6 mphScattered Clouds
9:35 AM84.4 °F76.8 °F78 %30.09 in10.0 miSSW (200°)4.6 mphClear
9:55 AM85.3 °F76.6 °F75 %30.09 in5.0 miSouth (190°)8.1 mphHaze
10:15 AM86.2 °F75.9 °F71 %30.09 in10.0 miSSW (200°)6.9 mphScattered Clouds
10:35 AM86.5 °F75.7 °F70 %30.10 in10.0 miSSE (150°)8.1 mphScattered Clouds
10:55 AM86.9 °F75.6 °F69 %30.10 in10.0 miSouth (170°)6.9 mphScattered Clouds
11:15 AM87.1 °F75.6 °F68 %30.09 in10.0 miSSE (160°)6.9 mphClear
11:35 AM88.0 °F74.5 °F64 %30.09 in7.0 miSSE (160°)8.1 mphClear
11:55 AM88.9 °F74.1 °F62 %30.09 in10.0 miSSE (160°)8.1 mphClear
12:15 PM88.9 °F72.3 °F58 %30.09 in10.0 miSouth (170°)9.2 mphClear
12:35 PM89.6 °F72.0 °F56 %30.09 in10.0 miSE (140°)8.1 mphClear
12:55 PM89.6 °F73.4 °F59 %30.09 in10.0 miSSE (160°)9.2 mphClear
1:15 PM90.5 °F71.1 °F53 %30.09 in10.0 miSSE (150°)10.4 mphClear
1:35 PM90.3 °F70.0 °F51 %30.09 in10.0 miSouth (170°)9.2 mphClear
1:55 PM90.5 °F69.8 °F50 %30.08 in10.0 miSouth (170°)6.9 mphClear
2:15 PM90.5 °F70.7 °F52 %30.09 in10.0 miSouth (180°)11.5 mph16.1 mphClear
2:35 PM90.5 °F71.4 °F53 %30.08 in10.0 miSSE (160°)11.5 mphClear
2:55 PM90.3 °F71.6 °F54 %30.08 in10.0 miSouth (170°)10.4 mphClear
3:15 PM90.0 °F73.0 °F57 %30.08 in10.0 miSouth (170°)10.4 mph16.1 mphClear
3:35 PM90.0 °F72.1 °F56 %30.08 in10.0 miSouth (180°)10.4 mphClear
3:55 PM90.0 °F71.4 °F54 %30.08 in10.0 miSouth (170°)10.4 mphClear
4:15 PM89.8 °F72.3 °F56 %30.08 in10.0 miSSE (150°)10.4 mphClear
4:35 PM89.2 °F72.7 °F58 %30.08 in10.0 miSSE (160°)9.2 mphClear
4:55 PM89.6 °F71.6 °F55 %30.07 in10.0 miSSE (160°)10.4 mphClear
5:15 PM89.2 °F70.5 °F54 %30.07 in10.0 miSSE (160°)10.4 mphClear
5:35 PM88.9 °F71.2 °F56 %30.07 in10.0 miSouth (180°)10.4 mphClear
5:55 PM88.5 °F70.9 °F56 %30.07 in10.0 miSouth (170°)10.4 mphClear
6:15 PM88.0 °F70.0 °F55 %30.07 in10.0 miSouth (180°)9.2 mphClear
6:35 PM87.4 °F71.8 °F60 %30.07 in10.0 miSouth (190°)9.2 mphClear
6:55 PM86.5 °F72.0 °F62 %30.07 in10.0 miSouth (170°)9.2 mphClear
7:15 PM86.0 °F72.3 °F64 %30.07 in10.0 miSouth (170°)6.9 mphClear
7:35 PM84.9 °F73.4 °F68 %30.07 in10.0 miSouth (170°)6.9 mphClear
7:55 PM83.7 °F73.4 °F71 %30.07 in10.0 miSouth (170°)6.9 mphClear
8:15 PM82.6 °F73.6 °F74 %30.07 in10.0 miSSE (160°)5.8 mphClear
8:35 PM82.0 °F73.8 °F76 %30.07 in10.0 miSSE (160°)6.9 mphClear
8:55 PM81.5 °F74.5 °F79 %30.07 in10.0 miSouth (170°)4.6 mphClear
9:15 PM81.5 °F74.3 °F79 %30.07 in10.0 miSSE (160°)5.8 mphClear
9:35 PM81.3 °F74.5 °F80 %30.08 in10.0 miSouth (170°)5.8 mphClear
9:55 PM81.0 °F74.7 °F81 %30.08 in10.0 miSouth (170°)4.6 mphClear
10:15 PM80.6 °F75.2 °F84 %30.09 in10.0 miSouth (170°)4.6 mphClear
10:35 PM80.1 °F74.8 °F84 %30.10 in10.0 miCalmClear
10:55 PM79.5 °F74.8 °F86 %30.10 in10.0 miSE (140°)3.5 mphClear
11:15 PM78.8 °F75.2 °F89 %30.11 in10.0 miSSE (160°)3.5 mphClear
11:35 PM78.6 °F75.2 °F89 %30.11 in10.0 miSSE (160°)3.5 mphClear
11:55 PM78.3 °F75.2 °F90 %30.12 in10.0 miSE (140°)3.5 mphClear
Hourly data recorded from KORG, located miles away from Mauriceville, Texas







STORIES FROM OUR PARTNERS